Temperature
-2 -2 -2 -2 -2 -3 -3 -2 -1 0 -0 -0 -0 -1 -2 -3 -3 -3 -3 -3 -3 -3 -2 -2 -2 -1 -1 -1 -0 -0 0 0 1 1 1 1 2 2 3 3 3 3 3 3
-3 -3 -3 -3 -2 -2 -3 -2 -2 -2 -1 -1 -2 -3 -3 -3 -4 -4 -4 -4 -4 -3 -3 -3 -2 -2 -2 -1 -1 -1 -0 0 0 1 1 1 1 2 2 2 2 2 2 3
-1 -3 -3 -1 -2 -3 -3 -3 -3 -2 -1 -2 -3 -3 -4 -4 -4 -4 -5 -4 -4 -4 -4 -3 -3 -3 -2 -2 -1 -1 -1 -0 -0 0 1 1 1 1 1 2 2 2 2 2
-2 -3 -2 -0 -3 -3 -3 -3 -4 -3 -3 -3 -4 -4 -5 -4 -5 -5 -5 -5 -5 -4 -4 -4 -4 -3 -3 -2 -2 -2 -1 -1 -1 -0 0 0 1 1 1 1 1 2 2 2
-3 -2 -1 -1 -4 -4 -4 -3 -4 -4 -4 -4 -5 -5 -4 -4 -5 -5 -5 -5 -5 -5 -5 -4 -4 -4 -3 -3 -2 -2 -1 -1 -1 -1 -0 -0 0 1 1 1 1 1 1 1
-4 -2 -1 -1 -4 -6 -5 -3 -4 -5 -5 -5 -5 -3 -2 -4 -5 -5 -5 -5 -5 -5 -5 -4 -4 -4 -4 -3 -3 -2 -2 -2 -1 -1 -1 -0 -0 0 0 0 0 1 1 1
-4 -3 -2 -3 -6 -6 -3 -2 -4 -6 -6 -6 -6 -5 -5 -5 -5 -6 -6 -6 -5 -5 -5 -5 -4 -4 -4 -4 -3 -3 -2 -2 -2 -1 -1 -1 -1 -0 -0 -0 -0 0 0 0
-5 -4 -3 -5 -6 -4 -3 -5 -5 -6 -6 -7 -6 -6 -6 -6 -6 -6 -6 -6 -6 -6 -5 -5 -5 -5 -4 -4 -4 -3 -3 -2 -2 -2 -2 -1 -1 -1 -1 -1 -1 -0 -0 -0
-5 -3 -4 -6 -5 -5 -5 -6 -6 -6 -6 -7 -7 -7 -7 -7 -6 -6 -6 -6 -6 -6 -6 -5 -5 -5 -5 -4 -4 -4 -3 -3 -2 -2 -2 -2 -2 -1 -1 -1 -1 -1 -1 -1
-7 -5 -6 -6 -6 -6 -6 -6 -6 -6 -6 -7 -7 -7 -7 -7 -7 -7 -6 -6 -6 -6 -6 -6 -6 -5 -5 -5 -4 -4 -4 -3 -3 -3 -2 -2 -2 -2 -2 -2 -2 -1 -1 -1
-7 -6 -6 -6 -6 -6 -6 -6 -6 -6 -7 -7 -7 -7 -7 -7 -7 -7 -7 -7 -7 -7 -6 -6 -6 -6 -5 -5 -5 -4 -4 -4 -4 -3 -3 -3 -2 -2 -2 -2 -2 -2 -2 -2
-5 -5 -6 -5 -5 -6 -6 -7 -7 -7 -7 -7 -7 -7 -7 -7 -7 -7 -7 -7 -7 -7 -7 -6 -6 -6 -6 -5 -5 -5 -5 -4 -4 -4 -3 -3 -3 -2 -2 -2 -2 -2 -2 -2
-6 -6 -6 -6 -6 -7 -7 -7 -7 -7 -7 -8 -8 -8 -8 -8 -8 -7 -7 -7 -7 -7 -7 -7 -7 -6 -6 -6 -5 -5 -5 -5 -5 -4 -4 -4 -4 -3 -3 -3 -3 -3 -3 -3
-7 -7 -7 -7 -7 -7 -7 -7 -8 -8 -8 -8 -8 -8 -8 -8 -8 -8 -8 -8 -8 -8 -7 -7 -7 -7 -6 -6 -6 -6 -5 -5 -5 -5 -5 -4 -4 -4 -4 -4 -3 -3 -3 -3
-7 -7 -8 -7 -7 -8 -8 -8 -8 -8 -8 -8 -8 -8 -8 -8 -8 -8 -8 -8 -8 -8 -8 -8 -7 -7 -7 -6 -6 -6 -6 -6 -6 -5 -5 -5 -5 -5 -5 -4 -4 -4 -4 -4
-8 -8 -8 -8 -8 -8 -8 -8 -8 -8 -9 -9 -9 -9 -9 -9 -9 -9 -9 -9 -8 -8 -8 -8 -8 -7 -7 -7 -7 -6 -6 -6 -6 -6 -6 -6 -6 -5 -5 -5 -5 -5 -5 -4
-8 -8 -9 -9 -9 -9 -9 -9 -9 -9 -9 -9 -9 -9 -9 -9 -9 -9 -9 -9 -9 -9 -8 -8 -8 -8 -8 -8 -7 -7 -7 -7 -7 -7 -6 -6 -6 -6 -6 -6 -6 -6 -6 -6
-8 -8 -8 -9 -9 -9 -9 -9 -9 -9 -9 -9 -9 -9 -9 -9 -9 -9 -9 -9 -9 -9 -9 -8 -8 -8 -8 -8 -8 -8 -8 -8 -7 -7 -7 -7 -7 -7 -7 -7 -7 -7 -6 -6
-8 -8 -8 -9 -9 -9 -9 -9 -9 -9 -9 -9 -9 -9 -9 -10 -10 -10 -9 -9 -9 -9 -9 -9 -9 -9 -9 -9 -9 -8 -8 -8 -8 -8 -8 -8 -8 -8 -8 -8 -7 -7 -7 -7
-8 -8 -9 -9 -9 -9 -9 -9 -9 -9 -9 -9 -9 -10 -10 -10 -10 -10 -10 -10 -10 -10 -9 -9 -9 -9 -9 -9 -9 -9 -9 -9 -9 -9 -9 -8 -8 -8 -8 -8 -8 -8 -8 -8
-9 -9 -9 -9 -9 -9 -9 -9 -9 -9 -9 -10 -10 -10 -10 -10 -10 -10 -10 -10 -10 -10 -10 -10 -10 -9 -9 -9 -9 -9 -9 -9 -9 -9 -9 -9 -9 -9 -9 -9 -8 -8 -8 -8
-9 -9 -9 -9 -9 -9 -9 -10 -10 -10 -10 -10 -10 -10 -10 -10 -10 -10 -10 -10 -10 -10 -10 -10 -10 -10 -10 -10 -10 -10 -10 -10 -10 -10 -10 -10 -9 -9 -9 -9 -9 -9 -9 -8
-9 -9 -10 -10 -10 -10 -10 -10 -10 -10 -10 -10 -10 -10 -10 -10 -10 -10 -10 -10 -10 -10 -10 -10 -10 -10 -10 -10 -10 -10 -10 -10 -10 -10 -10 -10 -10 -10 -10 -9 -9 -9 -9 -9
-10 -10 -10 -10 -10 -10 -10 -10 -10 -10 -10 -10 -10 -11 -11 -11 -10 -11 -10 -10 -10 -10 -10 -10 -10 -10 -10 -10 -10 -10 -10 -10 -10 -10 -10 -10 -10 -10 -10 -10 -10 -10 -9 -9
-10 -10 -10 -10 -10 -10 -10 -10 -10 -10 -11 -11 -11 -11 -11 -11 -11 -11 -11 -11 -11 -11 -10 -10 -11 -11 -10 -10 -10 -10 -10 -10 -10 -11 -11 -10 -10 -10 -10 -10 -10 -10 -10 -10
-10 -10 -10 -11 -11 -11 -11 -11 -11 -11 -11 -11 -11 -11 -11 -11 -11 -11 -11 -11 -11 -11 -11 -11 -11 -11 -11 -11 -11 -11 -11 -11 -11 -11 -11 -11 -11 -10 -10 -10 -10 -10 -10 -10
-11 -11 -11 -11 -11 -11 -11 -11 -11 -11 -11 -11 -11 -11 -11 -11 -11 -11 -11 -11 -11 -11 -11 -11 -11 -11 -11 -11 -11 -11 -11 -11 -11 -11 -11 -11 -11 -11 -11 -11 -11 -11 -11 -10
Wind_Speed
8 9 7 9 9 9 10 10 10 11 12 14 11 10 10 9 9 9 9 9 9 8 8 8 7 6 6 6 6 5 5 5 5 5 4 5 5 6 6 6 7 7 7 8
6 6 7 10 12 12 12 12 14 15 16 11 9 7 8 9 9 9 9 10 10 10 9 8 8 7 7 6 6 6 5 5 5 4 4 4 4 5 6 6 6 6 7 8
5 5 7 9 8 10 8 8 8 11 10 7 8 8 8 9 8 8 9 10 10 10 9 9 8 7 7 7 6 6 5 5 5 4 4 4 4 4 5 5 5 6 6 7
4 4 7 3 1 4 6 8 9 10 10 8 9 9 8 8 7 8 9 9 10 9 9 9 9 8 7 6 6 5 6 6 5 5 4 4 4 3 3 3 4 5 6 6
3 5 8 5 2 2 4 7 5 8 9 9 8 7 7 5 6 7 8 9 9 9 9 8 8 8 7 6 5 5 6 6 6 5 5 4 4 3 3 3 3 4 4 5
4 5 6 2 1 0 2 5 1 3 6 7 5 6 6 6 7 9 9 8 8 8 8 8 8 7 7 6 6 6 7 7 7 5 5 5 4 3 3 3 3 2 2 4
7 7 7 2 1 2 3 4 3 3 5 5 5 7 8 10 9 8 8 9 8 8 7 8 8 7 6 6 6 7 7 7 6 5 5 5 4 3 2 2 2 2 2 3
5 6 7 3 4 4 4 4 3 5 5 6 8 9 9 10 9 9 9 8 8 8 8 8 7 7 7 7 8 7 7 6 6 5 4 3 3 3 1 1 2 2 2 2
7 6 2 4 5 4 3 4 5 6 6 7 8 9 9 9 9 9 8 8 7 8 8 8 7 7 7 8 8 7 6 5 5 5 4 3 2 2 1 1 1 2 2 2
7 9 8 7 7 7 6 6 7 7 7 7 8 9 9 9 8 8 7 7 6 7 7 8 8 7 7 7 7 6 5 5 5 4 4 3 2 2 1 1 2 2 2 2
8 9 8 7 8 8 7 7 8 8 7 8 8 9 9 8 8 7 7 7 6 6 7 8 8 7 7 7 6 5 5 4 4 4 4 3 2 2 2 2 2 2 2 3
8 6 6 8 6 5 6 8 8 8 7 7 7 8 8 7 7 7 7 7 7 7 7 8 7 7 7 7 5 4 4 4 3 3 3 2 2 3 3 2 3 3 3 2
7 5 7 8 8 7 7 7 7 7 7 7 7 7 7 7 6 6 6 7 7 7 7 7 7 7 7 6 5 4 4 4 3 3 2 2 2 2 2 3 3 3 2 2
7 6 7 7 7 7 6 6 6 6 6 6 6 6 6 6 6 6 7 7 7 7 7 7 7 7 7 6 5 4 4 3 3 3 3 2 2 2 2 2 2 3 3 3
7 7 7 7 7 6 5 4 5 5 5 5 5 5 5 6 6 7 6 6 6 6 6 7 7 7 7 6 5 4 3 3 3 3 3 2 2 2 2 2 2 2 2 3
6 6 6 6 7 6 5 5 6 7 6 6 6 6 6 6 6 6 6 5 5 6 7 6 7 7 6 5 5 3 3 4 3 2 2 2 2 2 2 2 2 2 2 3
4 5 5 6 7 7 6 6 6 7 6 7 7 6 5 5 5 5 6 5 5 6 6 6 7 6 5 4 4 3 3 3 3 2 2 2 2 1 1 1 1 1 2 3
6 6 6 6 7 7 7 6 6 6 6 6 6 5 5 5 6 6 6 5 5 5 6 6 6 5 4 4 3 2 2 2 2 2 2 2 2 2 1 1 1 1 2 2
5 6 6 6 6 6 6 6 6 6 6 5 5 5 5 5 6 6 5 4 4 6 6 5 6 4 4 4 3 2 2 2 2 2 1 2 2 2 1 1 1 1 2 2
5 5 5 5 5 4 5 5 5 5 5 4 4 5 5 5 5 5 4 4 4 4 5 5 4 4 4 3 3 2 1 1 1 2 1 1 2 2 2 2 2 2 1 2
6 6 5 5 5 5 5 5 4 5 5 4 4 5 5 5 4 4 4 4 4 4 5 5 3 3 3 2 2 1 1 1 2 2 1 1 2 2 2 2 2 2 2 2
5 5 5 5 5 5 4 4 4 5 5 4 4 4 4 5 4 4 4 4 5 5 4 3 2 3 3 2 1 1 1 2 2 2 2 2 2 2 2 2 2 2 2 2
5 5 5 5 5 5 5 4 4 4 5 5 4 4 4 4 4 4 4 3 3 4 3 3 3 4 3 1 1 2 2 2 2 2 2 2 2 2 3 3 3 2 2 2
5 4 4 4 4 4 4 5 4 4 4 4 4 4 4 4 3 3 4 5 5 5 3 3 4 4 3 1 1 1 2 2 2 2 3 3 3 3 3 3 3 3 3 3
4 4 4 3 3 4 4 4 4 4 4 3 4 3 3 3 3 3 3 4 4 4 3 3 4 4 2 2 2 2 2 2 2 3 2 3 3 3 3 3 3 3 3 3
4 4 4 4 4 4 3 3 3 3 3 4 4 3 3 2 3 3 2 3 3 3 3 2 2 2 2 2 2 2 3 3 3 3 3 3 3 3 3 3 4 3 3 3
3 3 3 3 3 3 3 3 3 3 3 3 4 3 3 2 2 2 2 2 2 2 2 2 2 2 2 2 2 3 3 3 3 3 3 3 3 3 3 4 4 4 4 4
Wind_Direction
266 280 276 264 257 238 228 237 251 267 271 285 301 309 312 314 316 318 320 324 324 321 319 317 315 314 312 310 310 305 288 276 273 267 260 259 250 245 229 219 218 212 210 210
272 269 273 272 260 248 246 249 253 267 277 287 300 307 308 312 316 317 317 320 322 322 320 317 314 312 309 308 308 305 295 287 285 279 268 261 254 246 226 216 213 210 211 209
272 297 290 269 250 233 239 241 241 255 272 301 303 303 306 310 311 310 311 315 318 316 314 315 314 309 305 304 302 296 292 291 290 282 276 267 253 249 234 217 212 213 216 213
277 290 257 280 58 228 239 259 245 258 280 294 297 302 296 296 299 306 309 312 313 313 312 312 312 311 307 303 299 295 292 292 293 287 279 274 255 247 252 239 220 216 216 215
245 264 274 276 246 228 243 277 252 256 278 295 310 299 291 297 300 300 304 306 306 306 306 307 310 313 311 308 305 300 297 297 294 288 283 274 261 248 245 244 234 227 215 205
230 252 261 300 93 233 238 272 282 262 287 308 314 298 312 325 310 304 308 309 308 307 308 309 313 314 310 308 307 301 299 297 292 285 280 275 271 262 253 243 236 198 191 199
233 247 267 290 147 178 245 316 344 287 293 297 284 286 310 315 310 306 309 314 316 314 311 311 313 311 305 306 304 303 303 298 296 291 283 276 278 273 254 237 215 181 186 200
212 229 254 148 154 210 282 325 302 297 293 286 287 296 304 307 308 311 314 316 319 316 314 316 318 313 307 305 306 308 305 303 303 299 293 283 280 280 260 224 198 184 188 200
217 237 303 192 230 262 296 289 290 291 289 284 288 293 298 302 304 307 310 313 315 314 313 316 317 315 307 308 310 308 311 311 309 306 300 294 282 274 260 231 208 199 196 206
258 263 266 260 260 265 264 266 278 282 283 280 281 289 293 294 296 300 307 311 313 312 313 315 318 314 307 310 314 313 313 314 314 310 311 306 300 277 264 252 227 215 215 218
259 274 288 268 255 259 263 268 275 279 277 275 280 286 289 292 294 298 303 307 309 310 311 314 320 321 322 320 320 316 313 315 316 312 312 314 311 295 276 275 268 239 225 220
253 259 261 282 285 270 266 273 276 279 284 281 275 280 289 292 294 298 302 307 310 311 312 315 320 321 325 325 322 315 311 314 315 315 318 323 327 332 335 308 326 309 283 258
261 279 273 281 284 277 275 279 279 273 274 283 283 281 285 290 295 300 304 307 308 309 311 315 318 321 326 329 326 315 308 313 316 315 320 324 325 326 332 346 348 325 316 286
260 270 276 274 278 282 280 281 284 283 280 279 284 289 289 292 297 301 301 304 306 308 311 315 317 320 326 328 325 320 312 313 315 316 320 322 323 323 321 325 342 351 347 335
259 258 266 281 287 287 288 289 289 289 294 295 292 288 288 290 292 297 303 307 307 308 311 315 316 319 326 326 324 323 324 326 324 324 328 332 339 345 346 347 346 348 1 1
285 279 273 277 282 288 289 285 283 287 292 293 292 290 286 285 290 298 304 304 303 303 307 310 310 315 323 324 325 325 327 337 338 338 341 346 353 355 355 356 353 356 1 354
278 284 285 285 286 286 281 275 274 280 285 286 288 291 293 293 296 297 298 296 290 291 298 302 305 315 321 325 325 325 328 336 344 345 347 345 347 345 343 352 354 353 352 356
264 270 270 271 275 279 282 282 277 277 278 283 289 290 288 286 286 290 295 300 300 301 303 304 306 313 320 325 322 323 329 334 345 347 344 346 345 339 339 346 345 340 343 353
290 283 283 282 279 276 278 282 282 282 282 282 280 278 278 279 281 286 293 298 299 300 308 308 312 314 314 317 318 317 329 333 340 340 338 339 339 338 338 336 329 331 339 348
307 303 297 294 291 283 283 289 290 288 287 282 278 278 281 284 286 284 281 276 279 289 300 306 306 306 304 304 308 305 313 317 318 320 327 329 326 327 329 325 319 322 329 330
307 305 300 296 295 292 286 287 287 288 292 286 277 277 283 290 289 281 277 283 295 296 296 301 304 303 301 307 302 297 295 298 300 301 304 306 310 312 313 314 311 310 312 314
302 300 298 297 296 298 300 297 291 290 292 291 286 285 288 292 292 283 268 273 295 305 303 299 299 303 310 312 298 294 288 284 285 287 289 292 292 295 298 302 300 299 298 298
295 291 291 293 294 300 306 303 294 287 286 288 288 286 283 285 286 284 289 293 296 302 301 298 307 313 321 315 292 281 279 276 274 276 279 282 283 283 283 285 287 289 287 287
294 292 291 295 298 299 304 307 300 293 289 289 287 283 282 286 286 276 280 297 308 306 296 304 313 319 325 318 302 291 283 279 276 274 274 275 275 277 278 280 281 283 282 281
291 291 290 291 291 291 295 304 306 305 304 303 304 302 291 280 281 295 299 301 309 312 304 309 320 328 321 305 302 295 287 280 277 276 273 274 273 273 275 276 275 278 279 278
291 291 287 283 283 288 293 297 301 307 311 312 315 318 314 306 300 302 305 312 317 319 317 313 316 318 308 303 301 301 296 293 292 289 283 278 276 276 276 277 278 275 273 272
292 291 291 295 295 294 294 292 293 298 300 300 304 313 317 318 320 322 321 320 321 319 317 318 316 313 310 308 305 304 301 299 295 291 288 283 281 278 278 276 275 274 270 265
Height
1521 1520 1520 1518 1517 1518 1517 1510 1503 1493 1492 1488 1489 1489 1487 1485 1482 1480 1478 1475 1472 1470 1467 1464 1462 1460 1458 1457 1457 1457 1456 1455 1455 1455 1455 1455 1455 1456 1457 1459 1461 1463 1466 1468
1522 1519 1519 1516 1511 1511 1510 1508 1504 1499 1493 1490 1490 1489 1487 1484 1481 1478 1476 1473 1470 1468 1465 1462 1460 1458 1456 1455 1454 1454 1453 1452 1451 1451 1451 1451 1451 1452 1453 1454 1456 1458 1460 1462
1512 1518 1515 1503 1502 1504 1503 1502 1501 1495 1490 1490 1489 1487 1485 1483 1480 1478 1475 1472 1469 1466 1463 1461 1459 1457 1454 1453 1452 1451 1450 1449 1449 1448 1448 1447 1448 1448 1448 1449 1451 1452 1454 1456
1516 1516 1507 1495 1502 1501 1500 1498 1497 1494 1491 1491 1489 1487 1484 1481 1479 1477 1474 1471 1468 1465 1462 1460 1457 1455 1453 1451 1450 1448 1447 1447 1446 1445 1445 1444 1444 1443 1443 1444 1445 1446 1448 1450
1517 1508 1496 1495 1500 1502 1500 1494 1493 1492 1490 1489 1488 1485 1480 1479 1477 1475 1473 1470 1467 1464 1461 1458 1455 1453 1450 1449 1447 1446 1445 1444 1443 1442 1441 1441 1440 1439 1439 1439 1440 1440 1441 1444
1518 1509 1496 1491 1500 1501 1501 1492 1490 1491 1489 1488 1487 1482 1478 1477 1475 1472 1470 1468 1465 1462 1459 1456 1453 1451 1448 1446 1445 1444 1443 1441 1440 1439 1438 1437 1436 1436 1435 1435 1435 1436 1438 1440
1515 1508 1496 1497 1500 1501 1495 1488 1490 1489 1488 1487 1486 1484 1480 1476 1473 1470 1468 1465 1462 1460 1457 1454 1452 1449 1447 1445 1443 1442 1440 1439 1438 1437 1435 1434 1433 1433 1432 1432 1433 1433 1435 1437
1513 1507 1497 1498 1498 1497 1492 1491 1489 1488 1487 1485 1483 1480 1477 1474 1471 1468 1465 1463 1460 1457 1455 1452 1450 1447 1445 1443 1441 1439 1438 1436 1435 1434 1433 1433 1432 1431 1431 1430 1430 1431 1433 1434
1504 1497 1494 1494 1493 1492 1491 1489 1488 1486 1484 1483 1480 1477 1475 1472 1469 1466 1464 1461 1458 1455 1452 1450 1447 1445 1442 1441 1439 1437 1435 1434 1433 1432 1432 1431 1430 1429 1428 1428 1428 1429 1430 1431
1502 1493 1492 1491 1490 1489 1488 1487 1485 1484 1482 1480 1477 1474 1472 1469 1466 1464 1461 1459 1456 1453 1450 1447 1445 1442 1440 1438 1437 1435 1433 1432 1432 1431 1430 1429 1429 1428 1427 1427 1427 1427 1427 1428
1498 1492 1490 1487 1486 1485 1484 1483 1482 1480 1478 1476 1474 1471 1469 1466 1463 1461 1458 1456 1453 1451 1448 1445 1442 1440 1438 1436 1434 1433 1431 1431 1430 1430 1429 1428 1427 1427 1427 1427 1427 1427 1427 1427
1489 1487 1487 1484 1482 1482 1481 1479 1478 1476 1474 1472 1470 1468 1466 1463 1461 1458 1456 1453 1451 1448 1446 1443 1440 1438 1436 1434 1432 1431 1430 1429 1429 1428 1427 1427 1426 1426 1426 1426 1426 1426 1426 1426
1485 1483 1483 1480 1479 1478 1477 1475 1474 1472 1470 1468 1467 1465 1463 1460 1458 1456 1453 1451 1449 1446 1444 1441 1439 1436 1434 1432 1431 1430 1429 1428 1427 1427 1426 1426 1425 1424 1424 1424 1424 1424 1424 1424
1481 1481 1478 1477 1476 1475 1473 1472 1470 1468 1467 1465 1463 1461 1459 1457 1455 1453 1451 1449 1446 1444 1442 1439 1437 1435 1433 1431 1429 1428 1428 1427 1426 1425 1425 1425 1424 1424 1423 1423 1422 1422 1423 1423
1477 1477 1475 1473 1472 1471 1469 1468 1466 1465 1463 1461 1460 1458 1456 1454 1452 1450 1448 1446 1444 1442 1440 1438 1435 1433 1432 1429 1428 1427 1426 1425 1425 1424 1424 1423 1423 1423 1422 1422 1422 1421 1421 1422
1474 1472 1471 1470 1468 1467 1466 1465 1463 1461 1460 1458 1456 1455 1453 1451 1449 1447 1445 1444 1441 1439 1438 1436 1434 1432 1430 1428 1427 1425 1425 1424 1423 1423 1422 1422 1422 1422 1422 1421 1421 1420 1420 1420
1471 1468 1467 1466 1465 1464 1463 1462 1460 1459 1457 1455 1453 1452 1450 1448 1446 1444 1443 1441 1439 1437 1436 1434 1432 1431 1429 1427 1426 1424 1423 1423 1422 1422 1421 1421 1421 1421 1421 1420 1420 1420 1420 1420
1468 1466 1465 1463 1462 1461 1459 1458 1457 1455 1454 1452 1450 1449 1447 1445 1443 1442 1440 1439 1437 1435 1433 1432 1431 1429 1427 1426 1425 1424 1423 1422 1421 1421 1420 1420 1420 1419 1419 1419 1419 1419 1419 1419
1465 1464 1462 1461 1459 1458 1457 1455 1454 1452 1451 1449 1447 1445 1444 1442 1441 1439 1438 1436 1434 1432 1431 1430 1429 1428 1426 1425 1424 1423 1422 1421 1421 1420 1419 1419 1419 1418 1418 1418 1418 1418 1418 1417
1462 1461 1459 1458 1456 1455 1454 1453 1451 1450 1448 1446 1445 1443 1441 1440 1438 1436 1435 1433 1432 1430 1429 1428 1427 1426 1425 1424 1423 1422 1422 1421 1420 1419 1419 1418 1418 1417 1417 1417 1417 1417 1416 1416
1460 1458 1457 1455 1454 1452 1451 1450 1448 1447 1445 1444 1442 1440 1439 1437 1436 1434 1432 1431 1430 1429 1427 1427 1425 1424 1423 1423 1422 1421 1420 1420 1419 1418 1418 1417 1417 1416 1416 1416 1416 1416 1415 1415
1457 1456 1454 1453 1451 1450 1448 1447 1445 1444 1442 1440 1439 1437 1436 1434 1433 1432 1430 1429 1428 1427 1426 1425 1424 1423 1422 1421 1420 1420 1419 1418 1418 1417 1416 1416 1415 1415 1415 1414 1414 1414 1414 1414
1455 1453 1452 1450 1449 1447 1445 1444 1443 1441 1439 1438 1436 1435 1434 1432 1431 1429 1428 1427 1426 1425 1424 1423 1422 1422 1421 1420 1419 1418 1417 1417 1416 1415 1415 1414 1414 1414 1413 1413 1412 1412 1412 1412
1452 1451 1449 1448 1446 1445 1443 1441 1440 1438 1437 1435 1434 1433 1431 1430 1429 1428 1426 1425 1424 1423 1422 1421 1420 1420 1419 1418 1417 1416 1415 1415 1414 1413 1413 1412 1412 1412 1411 1410 1410 1410 1409 1409
1450 1448 1447 1445 1443 1442 1440 1439 1437 1436 1434 1433 1432 1430 1429 1428 1427 1425 1424 1423 1422 1421 1420 1419 1419 1418 1417 1416 1415 1414 1413 1412 1412 1411 1411 1410 1410 1409 1409 1408 1408 1407 1407 1406
1447 1445 1444 1443 1441 1440 1438 1437 1435 1434 1432 1431 1429 1428 1427 1426 1424 1423 1422 1421 1420 1419 1418 1417 1416 1416 1415 1414 1413 1412 1411 1410 1409 1409 1408 1407 1407 1406 1406 1405 1405 1404 1404 1403
1444 1442 1441 1440 1438 1437 1436 1435 1433 1432 1430 1429 1428 1426 1425 1424 1423 1422 1421 1419 1418 1417 1416 1415 1414 1414 1413 1412 1411 1410 1409 1408 1407 1406 1405 1404 1404 1403 1403 1402 1402 1401 1401 1400